Weather History for Fort Bridger AP, Fort Bridger, WY

Change the Weather History Date:

Wednesday, January 22, 2014

  Actual Average (KEVW) Record (KEVW)
Temperature  
Mean Temperature 32 °F 22 °F  
Max Temperature 42 °F 29 °F 42 °F (2009)
Min Temperature 22 °F 14 °F -4 °F (2008)
Degree Days  
Heating Degree Days 33 43  
Month to date heating degree days 956  
Since 1 July heating degree days 4435  
Cooling Degree Days 0 0  
Month to date cooling degree days 0  
Year to date cooling degree days 0  
Moisture  
Dew Point 14 °F    
Average Humidity 52    
Maximum Humidity 91    
Minimum Humidity 32    
Precipitation  
Precipitation 0.00 in 0.02 in 0.04 in (2009)
Month to date precipitation 0.40  
Year to date precipitation 0.40  
Sea Level Pressure  
Sea Level Pressure 30.13 in    
Wind  
Wind Speed 10 mph (West)    
Max Wind Speed 15 mph    
Max Gust Speed 18 mph    
Visibility 10 miles    
Events      
T = Trace of Precipitation, MM = Missing Value Source: NWS Daily Summary

Daily Weather History Graph

Daily Weather History Graph

Search for Another Location

Airport:

Trip Planner

Search our weather history database for the weather conditions in past years. The results will help you decide how hot, cold, wet, or windy it might be!

Date:

Astronomy

Jan. 22, 2014 Rise Set
Actual Time 7:41 AM MST 5:25 PM MST
Civil Twilight 7:11 AM MST 5:55 PM MST
Nautical Twilight 6:37 AM MST 6:29 PM MST
Astronomical Twilight 6:04 AM MST 7:02 PM MST
Moon No Moon Rise 10:39 AM MST (1/22)
Length of Visible Light 10h 44m
Length of Day
9h 44m
Waning Gibbous, 65% of the Moon is Illuminated
Jan 22
Waning Gibbous
Jan 23
Last Quarter
Jan 30
New
Feb 6
First Quarter
Feb 14
Full

Hourly Weather History & Observations

Time (MST) Temp. Windchill Dew Point Humidity Pressure Visibility Wind Dir Wind Speed Gust Speed Precip Events Conditions
12:15 AM 31.8 °F 21.8 °F 11.3 °F 43% 30.27 in 10.0 mi West 13.8 mph - N/A   Clear
12:35 AM 30.9 °F 21.7 °F 10.9 °F 43% 30.27 in 10.0 mi West 11.5 mph - N/A   Clear
12:55 AM 29.8 °F 21.5 °F 10.4 °F 44% 30.26 in 10.0 mi West 9.2 mph - N/A   Clear
1:15 AM 28.8 °F 20.2 °F 10.4 °F 46% 30.25 in 10.0 mi West 9.2 mph - N/A   Clear
1:35 AM 29.3 °F 22.3 °F 10.2 °F 45% 30.24 in 10.0 mi West 6.9 mph - N/A   Clear
1:55 AM 27.3 °F 19.9 °F 10.4 °F 49% 30.24 in 10.0 mi West 6.9 mph - N/A   Clear
2:15 AM 27.9 °F 19.8 °F 9.5 °F 46% 30.24 in 10.0 mi West 8.1 mph - N/A   Clear
2:35 AM 27.5 °F 19.3 °F 9.7 °F 47% 30.24 in 10.0 mi West 8.1 mph - N/A   Clear
2:55 AM 27.5 °F 19.3 °F 9.5 °F 47% 30.24 in 10.0 mi West 8.1 mph - N/A   Clear
3:15 AM 27.5 °F 18.0 °F 9.1 °F 46% 30.23 in 10.0 mi WSW 10.4 mph - N/A   Clear
3:35 AM 28.0 °F 18.6 °F 9.3 °F 45% 30.22 in 10.0 mi WSW 10.4 mph - N/A   Clear
3:55 AM 28.2 °F 18.3 °F 9.7 °F 46% 30.21 in 10.0 mi WSW 11.5 mph - N/A   Clear
4:15 AM 28.9 °F 19.8 °F 9.9 °F 45% 30.20 in 10.0 mi WSW 10.4 mph - N/A   Clear
4:35 AM 29.5 °F 19.3 °F 9.3 °F 43% 30.20 in 10.0 mi WSW 12.7 mph - N/A   Clear
4:55 AM 28.6 °F 18.2 °F 10.0 °F 46% 30.19 in 10.0 mi WSW 12.7 mph - N/A   Clear
5:15 AM 27.7 °F 17.1 °F 10.4 °F 48% 30.19 in 10.0 mi West 12.7 mph - N/A   Clear
5:35 AM 28.0 °F 17.5 °F 10.0 °F 47% 30.18 in 10.0 mi West 12.7 mph - N/A   Clear
5:55 AM 26.6 °F 16.8 °F 10.4 °F 51% 30.18 in 10.0 mi West 10.4 mph - N/A   Clear
6:15 AM 26.6 °F 16.8 °F 10.0 °F 50% 30.16 in 10.0 mi West 10.4 mph - N/A   Clear
6:35 AM 27.9 °F 17.8 °F 9.9 °F 47% 30.16 in 10.0 mi West 11.5 mph - N/A   Clear
6:55 AM 28.2 °F 18.3 °F 10.2 °F 47% 30.16 in 10.0 mi West 11.5 mph - N/A   Clear
7:15 AM 24.1 °F 13.7 °F 10.6 °F 56% 30.16 in 10.0 mi West 10.4 mph - N/A   Clear
7:35 AM 25.5 °F 14.9 °F 10.2 °F 52% 30.17 in 10.0 mi WSW 11.5 mph - N/A   Clear
7:55 AM 26.8 °F - 9.9 °F 49% 30.16 in 10.0 mi North - - N/A   Clear
8:15 AM 27.3 °F - 10.2 °F 49% 30.16 in 10.0 mi North - - N/A   Clear
8:40 AM 30.2 °F 20.2 °F 10.0 °F 43% 30.15 in 10.0 mi West 12.7 mph - N/A   Clear
8:55 AM 31.1 °F 20.9 °F 10.4 °F 42% 30.14 in 10.0 mi WSW 13.8 mph - N/A   Clear
9:20 AM 33.8 °F 24.3 °F 10.0 °F 37% 30.14 in 10.0 mi WSW 13.8 mph - N/A   Clear
9:35 AM 35.1 °F 26.4 °F 10.2 °F 36% 30.14 in 10.0 mi WSW 12.7 mph - N/A   Clear
9:55 AM 36.0 °F 28.0 °F 11.3 °F 36% 30.14 in 10.0 mi West 11.5 mph - N/A   Clear
10:15 AM 37.0 °F 31.6 °F 12.0 °F 36% 30.14 in 10.0 mi NW 6.9 mph - N/A   Clear
10:35 AM 34.9 °F 32.0 °F 13.5 °F 41% 30.14 in 10.0 mi NNW 3.5 mph - N/A   Clear
11:00 AM 37.6 °F - 13.6 °F 38% 30.14 in 10.0 mi North - - N/A   Clear
11:15 AM 37.8 °F - 13.8 °F 38% 30.13 in 10.0 mi North - - N/A   Clear
11:35 AM 38.5 °F - 14.5 °F 38% 30.12 in 10.0 mi North - - N/A   Clear
11:55 AM 40.3 °F 34.4 °F 15.4 °F 37% 30.11 in 10.0 mi West 9.2 mph - N/A   Clear
12:15 PM 41.0 °F 33.9 °F 13.6 °F 33% 30.09 in 10.0 mi West 12.7 mph 18.4 mph N/A   Clear
12:35 PM 41.4 °F 35.2 °F 13.5 °F 32% 30.08 in 10.0 mi West 10.4 mph - N/A   Clear
12:55 PM 42.1 °F 36.1 °F 14.4 °F 33% 30.08 in 10.0 mi West 10.4 mph - N/A   Clear
1:15 PM 41.5 °F 35.0 °F 14.5 °F 33% 30.05 in 10.0 mi West 11.5 mph - N/A   Clear
1:40 PM 42.1 °F 36.1 °F 15.3 °F 34% 30.03 in 10.0 mi West 10.4 mph - N/A   Clear
1:55 PM 42.3 °F 36.8 °F 15.4 °F 34% 30.02 in 10.0 mi West 9.2 mph - N/A   Clear
2:15 PM 41.2 °F 34.5 °F 14.9 °F 34% 30.01 in 10.0 mi West 11.5 mph - N/A   Clear
2:35 PM 40.5 °F 33.2 °F 14.9 °F 35% 30.01 in 10.0 mi WNW 12.7 mph 17.3 mph N/A   Clear
2:55 PM 39.4 °F 32.3 °F 15.8 °F 38% 30.01 in 10.0 mi West 11.5 mph - N/A   Clear
3:15 PM 37.9 °F 30.9 °F 15.8 °F 41% 30.01 in 10.0 mi West 10.4 mph - N/A   Clear
3:40 PM 37.4 °F 30.3 °F 17.8 °F 45% 30.02 in 10.0 mi West 10.4 mph - N/A   Clear
3:55 PM 38.1 °F 31.7 °F 17.8 °F 44% 30.02 in 10.0 mi West 9.2 mph - N/A   Scattered Clouds
4:15 PM 36.5 °F 30.3 °F 18.0 °F 47% 30.03 in 10.0 mi West 8.1 mph - N/A   Clear
4:35 PM 35.2 °F 28.8 °F 19.4 °F 53% 30.03 in 10.0 mi West 8.1 mph - N/A   Clear
4:55 PM 34.2 °F 28.2 °F 19.9 °F 56% 30.03 in 10.0 mi West 6.9 mph - N/A   Clear
5:10 PM 33.4 °F 26.6 °F 20.1 °F 58% 30.04 in 10.0 mi West 8.1 mph - N/A   Clear
5:40 PM 31.8 °F - 20.5 °F 63% 30.04 in 10.0 mi North - - N/A   Scattered Clouds
5:55 PM 30.4 °F 23.6 °F 20.7 °F 67% 30.05 in 10.0 mi WNW 6.9 mph - N/A   Scattered Clouds
6:15 PM 29.8 °F 22.2 °F 20.3 °F 68% 30.05 in 10.0 mi WNW 8.1 mph - N/A   Scattered Clouds
6:35 PM 28.9 °F 19.8 °F 19.9 °F 69% 30.06 in 10.0 mi West 10.4 mph - N/A   Mostly Cloudy
6:55 PM 28.0 °F 20.8 °F 18.9 °F 68% 30.06 in 10.0 mi West 6.9 mph - N/A   Scattered Clouds
7:15 PM 27.3 °F 19.1 °F 18.9 °F 70% 30.06 in 10.0 mi West 8.1 mph - N/A   Clear
7:35 PM 27.3 °F 18.4 °F 18.0 °F 68% 30.06 in 10.0 mi West 9.2 mph - N/A   Clear
7:55 PM 26.6 °F 18.2 °F 17.8 °F 69% 30.08 in 10.0 mi West 8.1 mph - N/A   Clear
8:20 PM 26.2 °F 16.4 °F 17.1 °F 68% 30.08 in 10.0 mi West 10.4 mph - N/A   Clear
8:35 PM 25.3 °F 16.0 °F 17.1 °F 71% 30.08 in 10.0 mi NW 9.2 mph - N/A   Clear
8:55 PM 25.3 °F 17.6 °F 16.7 °F 70% 30.08 in 10.0 mi WNW 6.9 mph - N/A   Clear
9:15 PM 24.4 °F 18.6 °F 16.3 °F 71% 30.09 in 10.0 mi WNW 4.6 mph - N/A   Clear
9:35 PM 23.0 °F 15.8 °F 16.2 °F 75% 30.09 in 10.0 mi WNW 5.8 mph - N/A   Clear
9:55 PM 23.0 °F 17.0 °F 16.2 °F 75% 30.10 in 10.0 mi NW 4.6 mph - N/A   Clear
10:15 PM 22.8 °F 15.5 °F 17.1 °F 79% 30.11 in 10.0 mi North 5.8 mph - N/A   Clear
10:35 PM 23.4 °F 12.8 °F 19.4 °F 85% 30.11 in 10.0 mi ENE 10.4 mph - N/A   Clear
10:55 PM 23.4 °F 11.6 °F 20.7 °F 89% 30.12 in 10.0 mi East 12.7 mph - N/A   Scattered Clouds
11:15 PM 24.8 °F 12.4 °F 22.6 °F 91% 30.13 in 10.0 mi East 15.0 mph - N/A   Mostly Cloudy
11:35 PM 26.4 °F 15.0 °F 23.9 °F 90% 30.16 in 10.0 mi East 13.8 mph - N/A   Overcast
11:55 PM 27.0 °F 15.6 °F 24.4 °F 90% 30.16 in 10.0 mi East 13.8 mph - N/A   Overcast